[[{"header":{"parameterUnit":"m.s-1","parameterCategory":1,"la1":30.2991,"la2":30.254,"lo1":-89.0895,"lo2":-89.0444,"dy":0.0017,"dx":0.0017,"nx":28,"ny":28,"refTime":"2024-10-08T09:00:00:Z","depth":0,"parameterNumber":2,"parameterNumberName":"U-component_of_WINDS"},"data":[0,0,0,0,0,0,0,0,0,0,0,0,0,0,0,0,0,0,0,0,0,0,0,0,0,0,0,0,0,0,0,0,0,0,0,0,0,0,0,0,0,0,0,0,0,0,0,0,0,0,0,0,0,0,0,0,0,0,-0.3571,-0.357,0,-0.3523,-0.3523,-0.3522,-0.3518,-0.3519,-0.3519,-0.352,-0.3469,-0.3467,-0.3465,0,0,0,0,0,0,0,0,0,0,0,0,0,-0.3655,-0.3653,-0.3571,-0.357,-0.357,-0.3523,-0.3523,-0.3522,-0.3518,-0.3519,-0.3519,-0.352,-0.3469,-0.3467,-0.3465,0,0,0,0,0,0,0,0,0,0,0,0,0,-0.3614,-0.3653,-0.3571,-0.3562,-0.3561,-0.3524,-0.3523,-0.3522,-0.3518,-0.3519,-0.3519,-0.352,-0.347,-0.3467,-0.3464,-0.3432,0,0,-0.3456,-0.3455,0,0,0,0,0,0,0,0,-0.3616,-0.3611,-0.3564,-0.3563,-0.3561,-0.3527,-0.3534,-0.3492,-0.3518,-0.3534,-0.352,-0.352,-0.3487,-0.3483,-0.3473,-0.343,-0.3428,-0.3456,-0.3454,-0.3453,-0.3452,0,0,0,0,0,0,0,-0.3619,-0.3613,-0.3552,-0.3563,-0.3561,-0.3559,-0.3554,-0.3526,-0.3507,-0.3533,-0.3532,-0.3527,-0.3487,-0.3475,-0.3471,-0.3427,-0.3456,-0.3453,-0.3452,-0.3451,-0.3354,-0.3353,0,0,0,0,0,0,-0.3624,-0.3615,-0.3553,-0.355,-0.3591,-0.3557,-0.3552,-0.3537,-0.3507,-0.3503,-0.3526,-0.3527,-0.348,-0.3475,-0.3469,-0.3429,-0.3453,-0.345,-0.3449,-0.3355,-0.3354,-0.3353,0,0,0,0,0,0,-0.3626,-0.3618,-0.3555,-0.3583,-0.3575,-0.3555,-0.3539,-0.3536,-0.3525,-0.3502,-0.3499,-0.3518,-0.348,-0.3473,-0.3441,-0.3427,-0.3449,-0.3447,-0.3356,-0.3354,-0.3353,-0.3348,0,0,0,0,0,0,-0.3628,-0.3619,-0.3607,-0.3582,-0.3573,-0.3529,-0.3538,-0.3535,-0.352,-0.352,-0.3494,-0.349,-0.348,-0.3445,-0.3439,-0.3424,-0.3444,-0.3357,-0.3355,-0.3354,-0.3349,-0.3347,-0.3344,0,0,0,0,0,-0.3631,-0.3607,-0.3607,-0.3599,-0.3558,-0.3528,-0.3523,-0.3512,-0.3519,-0.3506,-0.3492,-0.3491,-0.343,-0.3442,-0.3434,-0.3419,-0.3358,-0.3356,-0.3354,-0.335,-0.3347,-0.3344,0,0,0,0,0,0,-0.363,-0.3604,-0.3603,-0.3571,-0.3552,-0.3527,-0.3511,-0.3509,-0.3487,-0.3488,-0.3476,-0.347,-0.3438,-0.3425,-0.3439,-0.3385,-0.3394,-0.3391,-0.3395,-0.3391,-0.3389,-0.3392,-0.3442,0,0,0,0,0,-0.3626,-0.3605,-0.3583,-0.3557,-0.3547,-0.3531,-0.3517,-0.3511,-0.3491,-0.3482,-0.3466,-0.3445,-0.3421,-0.3406,-0.3382,-0.3348,-0.3341,-0.3333,-0.333,-0.3328,-0.3325,-0.3305,-0.33,-0.3346,-0.3346,-0.3346,0,0,-0.3618,-0.3601,-0.3588,-0.3556,-0.3541,-0.3518,-0.3524,-0.35,-0.3483,-0.3478,-0.3447,-0.3434,-0.341,-0.3377,-0.3361,-0.3365,-0.3311,-0.3326,-0.3324,-0.3322,-0.3302,-0.3298,-0.3294,-0.3345,-0.3345,-0.3345,0,0,-0.3591,-0.3577,-0.3553,-0.3537,-0.3514,-0.3503,-0.3497,-0.3473,-0.3465,-0.3433,-0.3429,-0.3408,-0.3368,-0.335,-0.3336,-0.3303,-0.33,-0.3295,-0.3282,-0.3262,-0.3259,-0.3255,-0.3242,-0.3238,-0.3292,-0.3292,-0.3292,0,-0.3583,-0.355,-0.354,-0.3516,-0.3501,-0.3497,-0.3472,-0.3458,-0.3428,-0.3417,-0.3422,-0.3371,-0.3355,-0.3316,-0.3308,-0.3297,-0.3289,-0.3298,-0.326,-0.3257,-0.3253,-0.3241,-0.3236,-0.3292,-0.3292,-0.3292,-0.3292,0,-0.3541,-0.3518,-0.3501,-0.3473,-0.3456,-0.3432,-0.3418,-0.3402,-0.3397,-0.3385,-0.3353,-0.3333,-0.3306,-0.3296,-0.3291,-0.3257,-0.326,-0.3263,-0.3272,-0.3249,-0.3237,-0.3232,-0.3291,-0.3291,-0.3291,-0.3291,0,0,-0.3512,-0.3479,-0.3473,-0.346,-0.3434,-0.3415,-0.339,-0.3364,-0.335,-0.3329,-0.3307,-0.3273,-0.3275,-0.3259,-0.3252,-0.3235,-0.3208,-0.3239,-0.3238,-0.3233,-0.3168,-0.3166,-0.3161,-0.3207,-0.3206,-0.3205,-0.317,0,-0.3481,-0.3437,-0.3428,-0.339,-0.3367,-0.3363,-0.3341,-0.3322,-0.331,-0.3289,-0.3276,-0.3251,-0.3257,-0.3247,-0.323,-0.3215,-0.3195,-0.3217,-0.3185,-0.3184,-0.319,-0.3154,-0.3152,-0.312,-0.3165,-0.3164,-0.3164,0,-0.344,-0.3419,-0.3378,-0.3355,-0.3345,-0.3326,-0.33,-0.3281,-0.3259,-0.3251,-0.3233,-0.3228,-0.32,-0.3211,-0.3173,-0.3188,-0.3175,-0.3165,-0.3164,-0.316,-0.3172,-0.3149,-0.311,-0.3105,-0.3157,-0.3157,-0.3158,0,-0.3421,-0.3383,-0.3354,-0.3343,-0.3315,-0.3301,-0.3289,-0.3268,-0.3252,-0.323,-0.322,-0.3194,-0.318,-0.316,-0.3147,-0.3157,-0.3109,-0.3119,-0.3102,-0.3102,-0.3091,-0.3092,-0.3049,-0.3084,-0.3084,-0.3084,-0.3084,0,-0.3388,-0.3363,-0.3345,-0.3327,-0.3299,-0.3288,-0.326,-0.3248,-0.3229,-0.3207,-0.3202,-0.3182,-0.3167,-0.3144,-0.3134,-0.3103,-0.3097,-0.3089,-0.3087,-0.3089,-0.309,-0.3079,-0.3081,-0.3082,-0.3083,-0.3083,-0.3083,0,-0.3362,-0.335,-0.3317,-0.3294,-0.3287,-0.3267,-0.3246,-0.3228,-0.3217,-0.319,-0.3183,-0.3164,-0.3137,-0.3123,-0.3089,-0.3082,-0.3047,-0.3046,-0.3054,-0.3053,-0.3036,-0.3037,-0.2984,-0.2976,-0.3017,-0.3016,-0.3016,0,-0.3342,-0.3323,-0.3297,-0.3283,-0.327,-0.3247,-0.3232,-0.322,-0.3204,-0.3177,-0.3162,-0.3135,-0.3112,-0.3069,-0.3052,-0.3026,-0.3024,-0.3007,-0.302,-0.3023,-0.3022,-0.3023,-0.3021,-0.3004,-0.3004,-0.3004,-0.3003,0,-0.3305,-0.33,-0.3278,-0.3254,-0.3236,-0.3216,-0.3197,-0.3185,-0.317,-0.3152,-0.3124,-0.3107,-0.3073,-0.3046,-0.3018,-0.3004,-0.3001,-0.2999,-0.2994,-0.2996,-0.3001,-0.2997,-0.3047,-0.3001,-0.3001,-0.3001,-0.3001,-0.3001,-0.3281,-0.3264,-0.3243,-0.3219,-0.3203,-0.3185,-0.3166,-0.3152,-0.313,-0.3102,-0.3096,-0.3067,-0.3044,-0.3007,-0.2992,-0.2969,-0.2972,-0.2964,-0.2962,-0.296,-0.2959,-0.3006,-0.2964,-0.2964,-0.2964,-0.2964,-0.2964,0,-0.3244,-0.3231,-0.3208,-0.3181,-0.3162,-0.3162,-0.314,-0.3123,-0.3098,-0.3078,-0.3057,-0.3025,-0.2998,-0.2979,-0.2952,-0.2937,-0.2934,-0.293,-0.2931,-0.2927,-0.2958,-0.2965,-0.2932,-0.2932,-0.2932,-0.2932,-0.2932,-0.2932,-0.3222,-0.3193,-0.3185,-0.3147,-0.3133,-0.3106,-0.3093,-0.3076,-0.306,-0.3025,-0.3003,-0.2991,-0.2971,-0.2942,-0.2918,-0.2913,-0.2903,-0.2898,-0.2893,-0.2922,-0.2925,-0.2928,-0.2935,-0.2896,-0.2896,-0.2864,-0.2863,-0.2863]},{"header":{"parameterUnit":"m.s-1","parameterCategory":1,"la1":30.2991,"la2":30.254,"lo1":-89.0895,"lo2":-89.0444,"dy":0.0017,"dx":0.0017,"nx":28,"ny":28,"refTime":"2024-10-08T09:00:00:Z","depth":0,"parameterNumber":3,"parameterNumberName":"V-component_of_WINDS"},"data":[0,0,0,0,0,0,0,0,0,0,0,0,0,0,0,0,0,0,0,0,0,0,0,0,0,0,0,0,0,0,0,0,0,0,0,0,0,0,0,0,0,0,0,0,0,0,0,0,0,0,0,0,0,0,0,0,0,0,-4.1971,-4.1971,0,-4.1985,-4.1985,-4.1985,-4.1961,-4.196,-4.196,-4.1959,-4.197,-4.1971,-4.1972,0,0,0,0,0,0,0,0,0,0,0,0,0,-4.1922,-4.1923,-4.1971,-4.1971,-4.1971,-4.1985,-4.1985,-4.1985,-4.1961,-4.196,-4.1959,-4.1958,-4.1969,-4.1971,-4.1972,0,0,0,0,0,0,0,0,0,0,0,0,0,-4.194,-4.1923,-4.1971,-4.1961,-4.196,-4.1985,-4.1985,-4.1985,-4.1962,-4.196,-4.1959,-4.1958,-4.1969,-4.1971,-4.1972,-4.2006,0,0,-4.1977,-4.1978,0,0,0,0,0,0,0,0,-4.1939,-4.1942,-4.1962,-4.1962,-4.1961,-4.197,-4.1972,-4.1992,-4.1962,-4.1961,-4.1959,-4.1957,-4.1971,-4.1972,-4.1977,-4.2006,-4.2007,-4.1977,-4.1978,-4.1979,-4.1979,0,0,0,0,0,0,0,-4.1938,-4.1941,-4.1976,-4.1963,-4.1962,-4.1955,-4.1957,-4.1976,-4.1972,-4.1961,-4.1959,-4.1961,-4.197,-4.1976,-4.1977,-4.2007,-4.1977,-4.1978,-4.1979,-4.198,-4.2068,-4.2069,0,0,0,0,0,0,-4.1938,-4.194,-4.1976,-4.1977,-4.1947,-4.1957,-4.1959,-4.1968,-4.1972,-4.1971,-4.1962,-4.196,-4.1974,-4.1975,-4.1978,-4.202,-4.1979,-4.198,-4.1981,-4.2067,-4.2068,-4.207,0,0,0,0,0,0,-4.1937,-4.1942,-4.1975,-4.1958,-4.1962,-4.1959,-4.197,-4.1969,-4.1975,-4.1973,-4.1972,-4.1969,-4.1973,-4.1975,-4.2,-4.202,-4.1981,-4.1982,-4.2065,-4.2067,-4.2069,-4.2103,0,0,0,0,0,0,-4.1936,-4.1941,-4.1954,-4.1959,-4.1963,-4.1998,-4.1972,-4.197,-4.1978,-4.1975,-4.1979,-4.1979,-4.1972,-4.1998,-4.2002,-4.2021,-4.1983,-4.2063,-4.2066,-4.2068,-4.21,-4.2106,-4.2111,0,0,0,0,0,-4.1934,-4.1962,-4.1955,-4.1959,-4.1979,-4.1999,-4.2001,-4.1994,-4.198,-4.1993,-4.1992,-4.1978,-4.2017,-4.2001,-4.2005,-4.2025,-4.2062,-4.2065,-4.2068,-4.2098,-4.2105,-4.2111,0,0,0,0,0,0,-4.1957,-4.1962,-4.1955,-4.1984,-4.1992,-4.1995,-4.2011,-4.2002,-4.2012,-4.2009,-4.1999,-4.2,-4.2027,-4.2028,-4.201,-4.206,-4.2037,-4.2041,-4.2058,-4.2065,-4.207,-4.207,-4.1985,0,0,0,0,0,-4.1966,-4.1983,-4.1986,-4.2012,-4.2016,-4.2013,-4.2021,-4.2016,-4.2023,-4.2025,-4.2026,-4.2032,-4.2046,-4.2055,-4.2068,-4.21,-4.2102,-4.2116,-4.2122,-4.2126,-4.213,-4.215,-4.2158,-4.208,-4.208,-4.208,0,0,-4.1984,-4.1989,-4.1999,-4.2017,-4.2022,-4.2039,-4.2016,-4.2034,-4.2048,-4.2027,-4.2052,-4.2053,-4.206,-4.2089,-4.2102,-4.2091,-4.2152,-4.213,-4.2134,-4.2135,-4.2154,-4.2162,-4.2168,-4.2082,-4.2082,-4.2082,0,0,-4.2026,-4.2031,-4.2055,-4.2061,-4.207,-4.2069,-4.2075,-4.208,-4.2081,-4.2105,-4.2092,-4.2107,-4.213,-4.2136,-4.2142,-4.2191,-4.2179,-4.2195,-4.2224,-4.2243,-4.2249,-4.2255,-4.2274,-4.2281,-4.2198,-4.2199,-4.2199,0,-4.2047,-4.2074,-4.2068,-4.2089,-4.2098,-4.2083,-4.2107,-4.2113,-4.2125,-4.2131,-4.2119,-4.215,-4.2153,-4.2186,-4.2198,-4.2202,-4.221,-4.2195,-4.2249,-4.2255,-4.226,-4.2278,-4.2285,-4.2201,-4.22,-4.22,-4.22,0,-4.2101,-4.2119,-4.2137,-4.2153,-4.2163,-4.2185,-4.2183,-4.2194,-4.2188,-4.2188,-4.2215,-4.2219,-4.2233,-4.224,-4.2233,-4.2272,-4.2265,-4.2251,-4.2228,-4.2269,-4.2286,-4.2293,-4.2204,-4.2203,-4.2202,-4.2202,0,0,-4.2156,-4.217,-4.2177,-4.2185,-4.2195,-4.2209,-4.2232,-4.2248,-4.2259,-4.2268,-4.2288,-4.2309,-4.2298,-4.2305,-4.2298,-4.2316,-4.2357,-4.23,-4.23,-4.2312,-4.2403,-4.2415,-4.2423,-4.2349,-4.235,-4.2351,-4.2403,0,-4.22,-4.2241,-4.2237,-4.2276,-4.2295,-4.2282,-4.2302,-4.2311,-4.2312,-4.2327,-4.2328,-4.2345,-4.2326,-4.2331,-4.2347,-4.2348,-4.2375,-4.2344,-4.2368,-4.2369,-4.2368,-4.2432,-4.2443,-4.2492,-4.241,-4.2411,-4.2412,0,-4.2256,-4.2271,-4.2312,-4.2323,-4.2331,-4.2349,-4.2365,-4.238,-4.239,-4.2389,-4.2399,-4.2391,-4.2414,-4.2391,-4.2424,-4.2403,-4.2413,-4.2415,-4.2416,-4.2419,-4.2394,-4.2438,-4.2507,-4.2515,-4.2422,-4.2421,-4.242,0,-4.2296,-4.2325,-4.2355,-4.2361,-4.2374,-4.2388,-4.2393,-4.2402,-4.2413,-4.2427,-4.2434,-4.2449,-4.2458,-4.247,-4.2467,-4.245,-4.2501,-4.2477,-4.2502,-4.2503,-4.2514,-4.2514,-4.2588,-4.2518,-4.2518,-4.2517,-4.2517,0,-4.2346,-4.2372,-4.2373,-4.2391,-4.2421,-4.2417,-4.2446,-4.245,-4.2459,-4.2478,-4.2466,-4.2484,-4.2478,-4.2496,-4.2493,-4.2522,-4.2525,-4.2526,-4.2525,-4.2528,-4.2528,-4.2535,-4.2532,-4.2519,-4.2519,-4.2519,-4.2518,0,-4.2395,-4.2396,-4.2428,-4.2439,-4.2442,-4.2464,-4.2473,-4.249,-4.2491,-4.2516,-4.2521,-4.2523,-4.2543,-4.2541,-4.2563,-4.2561,-4.2598,-4.2592,-4.2595,-4.2595,-4.2621,-4.262,-4.2703,-4.2715,-4.2636,-4.2636,-4.2637,0,-4.2427,-4.2448,-4.2462,-4.2475,-4.2483,-4.2503,-4.2515,-4.2512,-4.2525,-4.254,-4.2556,-4.2576,-4.2592,-4.2626,-4.2628,-4.2646,-4.2641,-4.267,-4.2644,-4.2647,-4.2644,-4.2644,-4.2647,-4.2675,-4.2676,-4.2677,-4.2677,0,-4.2486,-4.2487,-4.2506,-4.2526,-4.2541,-4.2556,-4.257,-4.2581,-4.2579,-4.2595,-4.2617,-4.263,-4.2654,-4.2675,-4.2692,-4.2697,-4.2688,-4.2685,-4.2693,-4.2696,-4.2699,-4.27,-4.2611,-4.2684,-4.2683,-4.2682,-4.2682,-4.2682,-4.2529,-4.2548,-4.2563,-4.2585,-4.2595,-4.2609,-4.2627,-4.2632,-4.2651,-4.2673,-4.2669,-4.2695,-4.2706,-4.2729,-4.2736,-4.2756,-4.2746,-4.2756,-4.2758,-4.2761,-4.2766,-4.2695,-4.2759,-4.2759,-4.2758,-4.2758,-4.2758,0,-4.2589,-4.2599,-4.2619,-4.2641,-4.2659,-4.265,-4.2665,-4.2681,-4.2704,-4.2716,-4.2734,-4.276,-4.2781,-4.2786,-4.2806,-4.2821,-4.2818,-4.2827,-4.2826,-4.2828,-4.2772,-4.2765,-4.283,-4.283,-4.283,-4.283,-4.283,-4.283,-4.2623,-4.2656,-4.2659,-4.2697,-4.2706,-4.2733,-4.2743,-4.2756,-4.2766,-4.2798,-4.2816,-4.282,-4.283,-4.2851,-4.287,-4.2871,-4.288,-4.2891,-4.2891,-4.2839,-4.2832,-4.2825,-4.2818,-4.2893,-4.2893,-4.2945,-4.2946,-4.2946]}]]